SCP
0 0 -0 -0 -0 -0 -0 -0 0 0 0 0 0 0 0 0 0 0 0 0 0 0 0 0 0 0 0 0 0 0 0 0 0 0 0 0 0 0 0 0 0 0 0 0
0 -0 -0 -0 -0 0 -0 -0 0 0 0 0 0 0 0 0 0 0 0 0 0 0 0 0 0 0 0 0 0 0 0 0 0 0 0 0 0 0 0 0 0 0 0 0
0 0 -0 -0 0 0 -0 -0 -0 0 0 0 0 0 0 0 0 0 0 0 0 0 0 0 0 0 0 0 0 0 0 0 0 0 0 0 0 0 0 0 0 0 0 0
0 0 0 0 0 -0 -0 -0 0 0 0 0 0 0 0 0 0 0 0 0 0 0 0 0 0 0 0 0 0 0 0 0 0 0 0 0 0 0 0 0 0 0 0 0
0 0 0 0 0 -0 0 0 0 0 0 0 0 0 0 0 0 0 0 0 0 0 0 0 0 0 0 0 0 0 0 0 0 0 0 0 0 0 0 0 0 0 0 0
0 0 0 0 0 -0 -0 -0 0 0 0 0 0 0 0 0 0 0 0 0 0 0 0 0 0 0 0 0 0 0 0 0 0 0 0 0 0 0 0 0 0 0 0 0
0 0 0 0 0 -0 -0 -0 -0 -0 0 0 0 0 0 0 0 0 0 0 0 0 0 0 0 0 0 0 0 0 0 0 0 0 0 0 0 0 0 0 0 0 0 0
0 0 0 0 0 -0 -0 -0 -0 -0 0 0 0 0 0 0 0 0 0 0 0 0 0 0 0 0 -0 -0 -0 0 0 0 0 1 0 0 0 0 0 0 0 0 0 0
0 0 0 0 0 -0 -0 -0 -0 -0 -0 0 0 -0 -0 -0 0 0 0 -0 -0 0 0 0 0 0 0 0 0 -0 -0 0 0 0 1 0 0 0 0 0 0 0 0 0
0 0 0 0 0 0 -0 0 0 -0 -0 -0 -0 -0 -0 0 -0 -0 -0 0 -0 -0 -0 0 0 0 0 0 0 0 0 -0 0 0 0 0 0 0 0 0 0 0 0 0
0 0 0 0 0 0 -0 0 0 0 0 -0 0 0 0 0 0 0 0 -0 0 0 -0 -0 0 0 0 0 0 0 0 0 0 0 0 0 0 0 0 0 0 0 0 0
0 0 -0 0 0 0 0 0 0 0 0 0 -0 0 0 0 0 0 0 0 -0 0 -0 -0 -0 0 0 0 0 0 0 0 0 0 0 0 0 0 0 0 0 0 0 0
-0 -0 -0 -0 0 0 0 0 0 0 0 0 0 0 0 0 0 0 0 0 0 0 -0 0 0 -0 0 0 0 0 0 0 0 0 0 0 0 0 0 0 0 0 0 0
-0 -0 -0 -0 0 0 0 0 0 0 0 0 0 0 0 0 0 0 0 0 0 0 0 0 0 0 0 0 -0 -0 0 0 0 0 0 0 0 0 0 0 0 0 0 0
-0 -0 -0 -0 0 0 0 0 0 0 0 0 0 0 0 0 0 0 0 0 0 0 0 0 0 0 -0 -0 0 -0 0 0 0 0 0 0 0 0 0 0 -0 0 0 0
-0 -0 -0 0 0 0 0 0 0 0 0 0 0 0 0 0 0 0 0 0 0 0 0 0 0 0 0 -0 -0 0 0 -0 0 0 0 0 -0 -0 0 0 0 0 0 0
-0 -0 0 0 0 -0 -0 0 0 0 0 0 0 0 0 0 0 0 0 0 0 0 0 0 0 0 0 0 0 0 -0 0 -0 0 0 -0 -0 0 -0 -0 -0 0 0 0
-0 0 0 0 -0 -0 0 0 0 0 0 0 0 0 0 0 0 0 0 0 0 0 0 0 0 0 0 0 0 -0 0 0 0 0 0 0 -0 -0 0 0 -0 0 0 0
-0 0 0 -0 0 0 -0 0 0 0 0 0 0 0 0 0 0 0 0 0 0 0 0 0 0 0 0 0 0 0 0 0 0 0 0 -0 -0 0 0 -0 -0 -0 -0 -0
-0 -0 0 0 -0 0 0 -0 0 0 0 0 0 0 0 0 0 0 0 0 0 0 0 0 0 0 0 0 0 0 0 -0 -0 -0 -0 -0 -0 -0 -0 -0 -0 -0 0 0
0 0 0 -0 -0 -0 -0 0 0 0 0 0 0 0 0 0 0 0 0 0 0 0 0 0 0 0 0 0 0 0 -0 -0 -0 -0 0 -0 -0 -0 -0 0 0 0 0 0
-0 0 -0 -0 0 0 0 0 0 0 0 0 0 0 0 0 0 0 0 0 0 0 0 0 0 0 0 0 0 0 0 0 -0 -0 0 0 0 0 0 0 0 0 0 -0
-0 -0 -0 0 0 0 0 0 0 0 0 0 0 0 0 0 0 0 0 0 0 0 0 0 0 0 -0 0 0 0 0 0 0 0 0 0 0 0 0 0 0 0 0 0
-0 -0 0 0 0 0 0 0 0 0 0 0 0 0 0 0 0 0 0 0 0 0 0 0 0 0 0 0 0 0 0 0 0 0 0 0 0 0 0 0 0 0 0 0
-0 -0 0 0 0 0 0 0 0 0 0 0 0 0 0 0 0 0 0 0 0 0 0 0 0 0 0 0 0 0 0 0 0 0 0 0 0 0 0 0 0 0 0 0
-0 -0 0 0 0 0 0 0 0 0 0 0 0 0 0 0 0 0 0 0 0 0 0 0 0 0 0 0 0 0 0 0 0 0 0 0 0 0 -0 0 0 0 0 0
-0 0 0 0 0 0 0 0 0 0 0 0 0 0 0 0 0 0 0 0 0 0 0 0 0 0 0 0 0 0 0 0 0 0 0 0 -0 -0 -0 0 0 0 0 0
Wind_Speed_500mb
64 66 68 69 71 69 60 22 3 30 34 7 4 5 10 12 12 10 9 14 19 26 27 27 31 29 22 11 14 17 19 15 28 39 19 13 24 32 40 25 35 22 26 28
64 66 67 69 69 68 53 18 11 23 18 4 8 9 11 8 12 11 9 10 5 11 17 15 28 29 3 13 11 9 12 19 25 36 24 13 26 35 33 36 32 41 30 24
63 65 68 68 64 55 29 12 6 12 22 18 12 14 7 9 11 7 12 17 17 18 24 27 18 22 1 19 9 14 9 28 34 35 40 20 28 35 29 34 31 38 43 45
61 65 66 66 63 53 19 17 10 9 10 13 20 14 10 19 12 13 14 9 12 16 14 26 34 23 22 25 4 13 9 35 39 44 46 43 32 37 33 40 44 44 42 44
57 60 63 66 63 51 44 13 14 15 8 15 19 6 12 21 20 17 16 16 25 28 27 31 38 21 22 20 14 20 9 27 32 47 38 36 42 47 47 50 47 46 45 48
51 54 58 60 61 51 28 22 15 10 8 19 14 12 21 27 26 19 13 33 34 34 32 35 36 45 46 43 36 25 19 20 32 50 38 40 47 50 55 57 53 50 49 44
45 48 51 54 54 50 33 31 20 16 11 18 16 19 23 27 30 29 40 37 36 37 44 48 55 62 62 61 54 49 34 31 24 30 26 41 26 25 18 28 33 43 44 38
40 42 43 46 47 44 29 28 24 18 11 12 17 27 29 30 28 30 32 31 33 41 44 32 31 28 41 48 54 52 52 38 29 28 30 41 36 12 15 19 28 27 34 29
34 37 40 43 42 40 24 23 22 16 19 15 14 25 23 21 19 20 24 33 29 24 24 20 33 27 34 19 12 45 45 44 32 21 26 36 29 24 20 23 32 25 13 17
30 35 38 39 41 40 28 18 24 14 17 11 17 21 19 17 21 17 30 36 27 18 19 23 22 25 29 29 34 25 22 33 40 36 33 20 22 7 19 30 6 17 16 24
29 32 35 38 39 38 32 18 24 14 11 30 21 18 29 26 23 13 32 24 3 12 8 10 10 12 13 12 18 26 28 20 27 33 41 45 19 13 27 20 25 20 15 7
29 30 33 36 37 39 37 18 25 24 15 23 30 26 28 31 35 34 15 23 32 11 8 9 9 16 10 16 12 13 7 8 7 10 3 32 29 23 24 24 26 22 21 3
28 31 34 34 35 34 34 23 21 21 20 31 10 11 10 17 18 21 19 20 14 11 14 6 6 11 8 11 12 20 2 6 11 21 13 23 26 19 23 26 26 21 10 9
32 34 34 32 32 31 29 20 10 23 15 11 11 18 24 22 23 21 20 41 31 25 18 7 8 9 7 9 15 21 22 18 15 19 24 30 11 31 32 24 17 7 11 23
35 35 34 31 28 27 24 11 4 21 14 10 30 33 9 8 19 31 31 39 33 28 7 11 8 11 10 19 12 14 9 9 11 8 5 14 29 40 24 11 5 17 35 46
37 36 32 28 23 16 15 4 7 25 34 12 9 23 12 18 31 28 38 38 31 17 11 10 12 17 7 8 10 10 16 17 25 16 17 13 7 17 19 25 37 44 50 48
40 35 30 20 10 10 4 4 12 28 26 7 13 15 11 26 29 19 11 13 8 13 8 9 8 14 10 5 15 21 24 19 26 28 29 3 27 23 34 47 49 52 50 46
35 28 19 9 9 15 10 9 23 18 10 6 9 14 22 20 23 13 9 7 4 9 9 5 4 5 5 6 25 46 28 5 31 36 35 44 38 31 39 40 42 45 40 35
29 20 16 10 9 8 10 20 9 7 3 8 5 10 14 33 16 11 8 5 3 7 7 5 3 0 4 11 24 28 30 16 12 33 41 37 33 28 32 36 36 37 34 32
26 16 6 4 12 24 12 14 6 4 3 3 7 18 8 21 17 11 18 6 3 6 6 13 4 8 21 21 25 26 41 46 38 37 35 31 32 32 34 35 33 33 31 30
21 12 4 16 18 8 5 5 8 7 6 2 10 18 19 16 8 7 11 8 10 8 13 11 9 8 41 41 46 48 50 50 47 44 40 35 31 31 33 32 31 31 31 30
16 14 8 14 10 6 8 8 4 6 8 22 20 29 24 13 12 9 14 6 4 9 19 8 8 16 48 46 48 46 45 42 42 42 43 42 40 36 34 31 30 30 30 29
16 14 8 9 10 10 7 10 6 9 17 14 33 28 9 9 7 10 9 13 10 12 10 8 10 37 36 32 30 31 34 32 33 32 31 30 34 34 33 32 30 29 31 30
8 10 10 8 8 8 6 11 14 22 21 40 41 15 7 8 7 7 9 7 8 10 8 11 19 29 24 26 27 17 15 25 22 21 19 19 19 20 22 24 25 24 23 18
8 8 8 9 20 27 22 29 27 30 31 24 13 11 4 5 6 8 8 6 9 11 11 7 26 29 16 19 15 29 20 26 25 19 16 11 12 14 13 10 9 9 9 7
7 9 15 27 22 31 29 35 29 26 25 8 4 6 5 9 4 8 12 7 9 7 11 19 19 18 19 21 17 11 19 35 31 25 20 14 12 10 11 9 6 4 3 4
8 12 23 24 19 20 35 36 26 25 11 7 7 9 11 11 6 6 7 6 8 17 21 23 25 24 23 22 24 21 11 3 7 13 20 17 12 9 7 16 14 11 9 7
Wind_Direction_500mb
7 7 8 6 4 7 16 10 297 346 351 262 11 25 344 332 318 335 297 289 280 272 284 275 261 259 256 5 285 227 214 248 238 223 229 301 283 257 229 229 245 238 271 274
6 6 6 6 8 8 8 354 333 348 17 45 16 349 300 293 333 346 322 289 346 324 279 276 251 265 33 354 275 310 206 232 245 242 213 222 248 238 247 255 255 259 259 245
4 4 5 7 9 12 15 357 334 14 48 45 345 353 339 320 333 292 325 307 286 307 264 254 267 261 127 326 343 324 291 248 251 250 258 262 226 222 232 234 238 248 244 259
6 8 9 10 13 20 45 21 50 12 344 8 347 338 329 316 325 326 331 202 30 336 279 273 262 265 301 257 348 299 289 248 247 254 264 271 268 255 219 231 244 249 258 261
10 10 15 17 20 25 47 36 359 343 10 338 330 36 38 322 351 319 310 304 335 314 286 288 297 302 293 282 330 304 247 260 254 258 256 258 255 253 257 258 254 249 260 256
14 17 20 24 30 43 51 30 5 337 59 346 334 23 341 321 324 296 335 328 307 294 297 310 295 286 281 275 283 288 286 269 244 255 255 259 255 250 249 253 249 251 251 258
20 24 24 30 34 43 43 32 22 355 11 356 8 335 328 323 317 303 300 301 293 296 301 298 279 265 260 258 254 250 258 265 257 260 257 240 253 265 285 284 263 251 252 256
25 25 23 26 32 32 35 26 26 5 347 341 350 338 329 319 313 297 307 304 298 304 294 282 278 264 237 241 239 234 227 236 250 249 239 253 259 175 243 241 255 249 259 253
19 18 21 19 23 23 32 14 19 359 324 30 332 317 309 310 328 320 336 324 317 298 273 273 264 262 291 284 227 215 226 225 233 232 230 243 265 259 340 279 262 265 243 243
11 15 15 11 11 13 21 -0 8 360 319 304 307 307 317 305 316 307 309 333 322 301 271 274 271 269 258 265 273 258 211 210 218 232 244 255 274 89 329 218 270 356 325 277
5 7 6 4 2 4 14 339 355 4 296 292 276 282 285 285 268 281 317 310 23 323 304 304 339 335 2 289 287 280 263 243 217 233 229 238 50 286 235 10 327 344 350 338
359 356 355 355 355 355 1 343 333 325 287 278 292 281 273 257 264 278 273 277 311 306 303 347 320 321 295 329 299 6 268 20 320 337 282 341 4 340 324 327 323 324 344 35
354 351 349 350 349 346 344 337 332 337 304 318 290 275 285 271 269 255 250 264 238 246 285 297 282 288 325 318 319 314 221 298 300 326 19 336 314 336 336 323 313 313 316 177
349 346 350 346 338 335 339 330 324 8 321 291 309 312 303 285 260 255 261 256 264 276 269 286 270 277 264 286 297 294 295 295 289 285 301 323 51 347 326 311 304 270 126 131
344 344 341 335 334 332 334 327 292 360 359 298 298 315 314 339 288 271 268 275 271 252 219 227 254 275 282 270 283 270 317 328 295 303 222 311 317 322 308 274 158 148 129 124
339 338 334 330 334 343 355 304 320 340 346 323 305 315 304 302 319 298 275 266 254 221 206 231 251 262 273 299 291 349 326 306 323 302 302 303 34 36 45 114 121 115 113 119
338 335 330 334 350 11 19 341 291 322 335 309 296 299 340 321 329 315 317 288 238 210 239 237 259 270 216 261 273 321 340 357 343 305 265 255 60 64 70 82 91 98 100 100
342 344 347 10 18 8 21 314 325 339 341 338 302 305 332 354 336 331 323 308 281 244 260 249 260 317 240 265 346 322 321 278 343 48 121 113 102 82 84 89 91 89 91 92
348 352 3 10 22 342 309 319 342 355 314 322 309 314 335 336 325 305 307 334 314 295 269 93 317 140 314 303 344 18 25 3 51 70 76 89 80 83 88 96 97 91 85 83
353 6 14 342 317 330 332 0 1 326 302 283 288 331 313 315 329 307 344 337 354 322 328 320 88 66 43 15 7 5 31 59 80 75 85 84 78 78 77 79 85 89 93 93
6 359 347 313 337 12 324 330 347 336 283 289 320 317 317 323 317 312 331 326 330 19 18 3 12 52 52 53 60 58 56 59 65 71 75 77 83 84 86 86 85 84 85 88
358 353 349 359 2 345 316 0 4 359 338 337 340 327 327 319 320 315 343 310 2 38 316 33 30 28 56 59 58 62 68 67 68 73 74 74 74 81 86 90 93 96 96 92
23 15 357 359 9 17 6 328 333 329 323 322 322 327 325 325 331 298 305 13 21 339 19 22 39 28 76 79 43 41 48 60 69 70 75 82 84 84 87 90 90 90 86 82
18 6 16 22 352 357 328 301 295 295 280 302 314 313 345 328 315 345 2 7 22 24 39 27 5 23 55 62 41 35 18 42 40 62 69 77 86 87 88 85 83 80 84 89
29 18 7 9 325 323 325 317 308 316 317 315 309 297 265 316 330 6 339 38 44 15 7 11 1 18 54 15 20 60 50 21 11 21 43 56 77 83 89 97 98 100 103 95
27 28 351 341 333 336 335 343 335 350 332 310 281 306 350 54 11 21 11 31 32 1 347 356 355 337 323 321 349 29 14 17 11 23 33 46 55 67 80 95 105 80 42 359
9 5 2 344 324 313 333 337 334 347 349 19 8 32 4 325 35 41 19 10 329 2 12 12 10 8 5 3 12 30 49 70 11 3 10 17 25 54 82 83 83 74 50 31
Wind_Speed_850mb
64 66 68 69 71 69 60 22 3 30 34 7 4 5 10 12 12 10 9 14 19 26 27 27 31 29 22 11 14 17 19 15 28 39 19 13 24 32 40 25 35 22 26 28
64 66 67 69 69 68 53 18 11 23 18 4 8 9 11 8 12 11 9 10 5 11 17 15 28 29 3 13 11 9 12 19 25 36 24 13 26 35 33 36 32 41 30 24
63 65 68 68 64 55 29 12 6 12 22 18 12 14 7 9 11 7 12 17 17 18 24 27 18 22 1 19 9 14 9 28 34 35 40 20 28 35 29 34 31 38 43 45
61 65 66 66 63 53 19 17 10 9 10 13 20 14 10 19 12 13 14 9 12 16 14 26 34 23 22 25 4 13 9 35 39 44 46 43 32 37 33 40 44 44 42 44
57 60 63 66 63 51 44 13 14 15 8 15 19 6 12 21 20 17 16 16 25 28 27 31 38 21 22 20 14 20 9 27 32 47 38 36 42 47 47 50 47 46 45 48
51 54 58 60 61 51 28 22 15 10 8 19 14 12 21 27 26 19 13 33 34 34 32 35 36 45 46 43 36 25 19 20 32 50 38 40 47 50 55 57 53 50 49 44
45 48 51 54 54 50 33 31 20 16 11 18 16 19 23 27 30 29 40 37 36 37 44 48 55 62 62 61 54 49 34 31 24 30 26 41 26 25 18 28 33 43 44 38
40 42 43 46 47 44 29 28 24 18 11 12 17 27 29 30 28 30 32 31 33 41 44 32 31 28 41 48 54 52 52 38 29 28 30 41 36 12 15 19 28 27 34 29
34 37 40 43 42 40 24 23 22 16 19 15 14 25 23 21 19 20 24 33 29 24 24 20 33 27 34 19 12 45 45 44 32 21 26 36 29 24 20 23 32 25 13 17
30 35 38 39 41 40 28 18 24 14 17 11 17 21 19 17 21 17 30 36 27 18 19 23 22 25 29 29 34 25 22 33 40 36 33 20 22 7 19 30 6 17 16 24
29 32 35 38 39 38 32 18 24 14 11 30 21 18 29 26 23 13 32 24 3 12 8 10 10 12 13 12 18 26 28 20 27 33 41 45 19 13 27 20 25 20 15 7
29 30 33 36 37 39 37 18 25 24 15 23 30 26 28 31 35 34 15 23 32 11 8 9 9 16 10 16 12 13 7 8 7 10 3 32 29 23 24 24 26 22 21 3
28 31 34 34 35 34 34 23 21 21 20 31 10 11 10 17 18 21 19 20 14 11 14 6 6 11 8 11 12 20 2 6 11 21 13 23 26 19 23 26 26 21 10 9
32 34 34 32 32 31 29 20 10 23 15 11 11 18 24 22 23 21 20 41 31 25 18 7 8 9 7 9 15 21 22 18 15 19 24 30 11 31 32 24 17 7 11 23
35 35 34 31 28 27 24 11 4 21 14 10 30 33 9 8 19 31 31 39 33 28 7 11 8 11 10 19 12 14 9 9 11 8 5 14 29 40 24 11 5 17 35 46
37 36 32 28 23 16 15 4 7 25 34 12 9 23 12 18 31 28 38 38 31 17 11 10 12 17 7 8 10 10 16 17 25 16 17 13 7 17 19 25 37 44 50 48
40 35 30 20 10 10 4 4 12 28 26 7 13 15 11 26 29 19 11 13 8 13 8 9 8 14 10 5 15 21 24 19 26 28 29 3 27 23 34 47 49 52 50 46
35 28 19 9 9 15 10 9 23 18 10 6 9 14 22 20 23 13 9 7 4 9 9 5 4 5 5 6 25 46 28 5 31 36 35 44 38 31 39 40 42 45 40 35
29 20 16 10 9 8 10 20 9 7 3 8 5 10 14 33 16 11 8 5 3 7 7 5 3 0 4 11 24 28 30 16 12 33 41 37 33 28 32 36 36 37 34 32
26 16 6 4 12 24 12 14 6 4 3 3 7 18 8 21 17 11 18 6 3 6 6 13 4 8 21 21 25 26 41 46 38 37 35 31 32 32 34 35 33 33 31 30
21 12 4 16 18 8 5 5 8 7 6 2 10 18 19 16 8 7 11 8 10 8 13 11 9 8 41 41 46 48 50 50 47 44 40 35 31 31 33 32 31 31 31 30
16 14 8 14 10 6 8 8 4 6 8 22 20 29 24 13 12 9 14 6 4 9 19 8 8 16 48 46 48 46 45 42 42 42 43 42 40 36 34 31 30 30 30 29
16 14 8 9 10 10 7 10 6 9 17 14 33 28 9 9 7 10 9 13 10 12 10 8 10 37 36 32 30 31 34 32 33 32 31 30 34 34 33 32 30 29 31 30
8 10 10 8 8 8 6 11 14 22 21 40 41 15 7 8 7 7 9 7 8 10 8 11 19 29 24 26 27 17 15 25 22 21 19 19 19 20 22 24 25 24 23 18
8 8 8 9 20 27 22 29 27 30 31 24 13 11 4 5 6 8 8 6 9 11 11 7 26 29 16 19 15 29 20 26 25 19 16 11 12 14 13 10 9 9 9 7
7 9 15 27 22 31 29 35 29 26 25 8 4 6 5 9 4 8 12 7 9 7 11 19 19 18 19 21 17 11 19 35 31 25 20 14 12 10 11 9 6 4 3 4
8 12 23 24 19 20 35 36 26 25 11 7 7 9 11 11 6 6 7 6 8 17 21 23 25 24 23 22 24 21 11 3 7 13 20 17 12 9 7 16 14 11 9 7
Wind_Direction_850mb
7 7 8 6 4 7 16 10 297 346 351 262 11 25 344 332 318 335 297 289 280 272 284 275 261 259 256 5 285 227 214 248 238 223 229 301 283 257 229 229 245 238 271 274
6 6 6 6 8 8 8 354 333 348 17 45 16 349 300 293 333 346 322 289 346 324 279 276 251 265 33 354 275 310 206 232 245 242 213 222 248 238 247 255 255 259 259 245
4 4 5 7 9 12 15 357 334 14 48 45 345 353 339 320 333 292 325 307 286 307 264 254 267 261 127 326 343 324 291 248 251 250 258 262 226 222 232 234 238 248 244 259
6 8 9 10 13 20 45 21 50 12 344 8 347 338 329 316 325 326 331 202 30 336 279 273 262 265 301 257 348 299 289 248 247 254 264 271 268 255 219 231 244 249 258 261
10 10 15 17 20 25 47 36 359 343 10 338 330 36 38 322 351 319 310 304 335 314 286 288 297 302 293 282 330 304 247 260 254 258 256 258 255 253 257 258 254 249 260 256
14 17 20 24 30 43 51 30 5 337 59 346 334 23 341 321 324 296 335 328 307 294 297 310 295 286 281 275 283 288 286 269 244 255 255 259 255 250 249 253 249 251 251 258
20 24 24 30 34 43 43 32 22 355 11 356 8 335 328 323 317 303 300 301 293 296 301 298 279 265 260 258 254 250 258 265 257 260 257 240 253 265 285 284 263 251 252 256
25 25 23 26 32 32 35 26 26 5 347 341 350 338 329 319 313 297 307 304 298 304 294 282 278 264 237 241 239 234 227 236 250 249 239 253 259 175 243 241 255 249 259 253
19 18 21 19 23 23 32 14 19 359 324 30 332 317 309 310 328 320 336 324 317 298 273 273 264 262 291 284 227 215 226 225 233 232 230 243 265 259 340 279 262 265 243 243
11 15 15 11 11 13 21 -0 8 360 319 304 307 307 317 305 316 307 309 333 322 301 271 274 271 269 258 265 273 258 211 210 218 232 244 255 274 89 329 218 270 356 325 277
5 7 6 4 2 4 14 339 355 4 296 292 276 282 285 285 268 281 317 310 23 323 304 304 339 335 2 289 287 280 263 243 217 233 229 238 50 286 235 10 327 344 350 338
359 356 355 355 355 355 1 343 333 325 287 278 292 281 273 257 264 278 273 277 311 306 303 347 320 321 295 329 299 6 268 20 320 337 282 341 4 340 324 327 323 324 344 35
354 351 349 350 349 346 344 337 332 337 304 318 290 275 285 271 269 255 250 264 238 246 285 297 282 288 325 318 319 314 221 298 300 326 19 336 314 336 336 323 313 313 316 177
349 346 350 346 338 335 339 330 324 8 321 291 309 312 303 285 260 255 261 256 264 276 269 286 270 277 264 286 297 294 295 295 289 285 301 323 51 347 326 311 304 270 126 131
344 344 341 335 334 332 334 327 292 360 359 298 298 315 314 339 288 271 268 275 271 252 219 227 254 275 282 270 283 270 317 328 295 303 222 311 317 322 308 274 158 148 129 124
339 338 334 330 334 343 355 304 320 340 346 323 305 315 304 302 319 298 275 266 254 221 206 231 251 262 273 299 291 349 326 306 323 302 302 303 34 36 45 114 121 115 113 119
338 335 330 334 350 11 19 341 291 322 335 309 296 299 340 321 329 315 317 288 238 210 239 237 259 270 216 261 273 321 340 357 343 305 265 255 60 64 70 82 91 98 100 100
342 344 347 10 18 8 21 314 325 339 341 338 302 305 332 354 336 331 323 308 281 244 260 249 260 317 240 265 346 322 321 278 343 48 121 113 102 82 84 89 91 89 91 92
348 352 3 10 22 342 309 319 342 355 314 322 309 314 335 336 325 305 307 334 314 295 269 93 317 140 314 303 344 18 25 3 51 70 76 89 80 83 88 96 97 91 85 83
353 6 14 342 317 330 332 0 1 326 302 283 288 331 313 315 329 307 344 337 354 322 328 320 88 66 43 15 7 5 31 59 80 75 85 84 78 78 77 79 85 89 93 93
6 359 347 313 337 12 324 330 347 336 283 289 320 317 317 323 317 312 331 326 330 19 18 3 12 52 52 53 60 58 56 59 65 71 75 77 83 84 86 86 85 84 85 88
358 353 349 359 2 345 316 0 4 359 338 337 340 327 327 319 320 315 343 310 2 38 316 33 30 28 56 59 58 62 68 67 68 73 74 74 74 81 86 90 93 96 96 92
23 15 357 359 9 17 6 328 333 329 323 322 322 327 325 325 331 298 305 13 21 339 19 22 39 28 76 79 43 41 48 60 69 70 75 82 84 84 87 90 90 90 86 82
18 6 16 22 352 357 328 301 295 295 280 302 314 313 345 328 315 345 2 7 22 24 39 27 5 23 55 62 41 35 18 42 40 62 69 77 86 87 88 85 83 80 84 89
29 18 7 9 325 323 325 317 308 316 317 315 309 297 265 316 330 6 339 38 44 15 7 11 1 18 54 15 20 60 50 21 11 21 43 56 77 83 89 97 98 100 103 95
27 28 351 341 333 336 335 343 335 350 332 310 281 306 350 54 11 21 11 31 32 1 347 356 355 337 323 321 349 29 14 17 11 23 33 46 55 67 80 95 105 80 42 359
9 5 2 344 324 313 333 337 334 347 349 19 8 32 4 325 35 41 19 10 329 2 12 12 10 8 5 3 12 30 49 70 11 3 10 17 25 54 82 83 83 74 50 31